This is the latest recevied weather packets stored in our database for station/object SV9TNF-51. If no packets are shown the sender has not sent any weather packets the latest 10 day(s).
| Time | Temp. | Humidity | Pressure | Rain* | Wind** | Luminosity | Snow |
|---|---|---|---|---|---|---|---|
| 1788318814 | 23.89° C | 68% | 1011.2 hPa | 0 mm | 2.68 m/s, 125° | - | - |
| 1788318514 | 23.89° C | 68% | 1011.2 hPa | 0 mm | 0.45 m/s, 128° | - | - |
| 1788318214 | 23.89° C | 68% | 1011.2 hPa | 0 mm | 2.68 m/s, 129° | - | - |
| 1788317913 | 24.44° C | 68% | 1011.2 hPa | 0 mm | 2.68 m/s, 51° | - | - |
| 1788317614 | 24.44° C | 68% | 1011.2 hPa | 0 mm | 1.79 m/s, 123° | - | - |
| 1788317314 | 23.89° C | 66% | 1011.2 hPa | 0 mm | 0.89 m/s, 137° | - | - |
| 1788317014 | 23.89° C | 65% | 1011.2 hPa | 0 mm | 3.13 m/s, 39° | - | - |
| 1788316713 | 23.89° C | 63% | 1011.2 hPa | 0 mm | 3.58 m/s, 67° | - | - |
| 1788316413 | 23.33° C | 62% | 1011.2 hPa | 0 mm | 3.13 m/s, 82° | - | - |
| 1788316113 | 23.33° C | 62% | 1011.2 hPa | 0 mm | 4.92 m/s, 331° | - | - |
| 1788315813 | 23.33° C | 60% | 1011.2 hPa | 0 mm | 3.58 m/s, 332° | - | - |
| 1788315513 | 23.89° C | 58% | 1011.2 hPa | 0 mm | 0 m/s | - | - |
| 1788315213 | 23.89° C | 59% | 1011.2 hPa | 0 mm | 1.79 m/s, 93° | - | - |
| 1788314913 | 24.44° C | 61% | 1011.2 hPa | 0 mm | 0.45 m/s, 130° | - | - |
| 1788314613 | 24.44° C | 61% | 1011.2 hPa | 0 mm | 2.24 m/s, 105° | - | - |
| 1788314312 | 24.44° C | 63% | 1011.2 hPa | 0 mm | 4.02 m/s, 93° | - | - |
| 1788314012 | 24.44° C | 64% | 1011.2 hPa | 0 mm | 4.92 m/s, 15° | - | - |
| 1788313712 | 24.44° C | 62% | 1011.2 hPa | 0 mm | 4.92 m/s, 342° | - | - |
| 1788313413 | 24.44° C | 54% | 1011.2 hPa | 0 mm | 4.02 m/s, 91° | - | - |
| 1788313112 | 24.44° C | 54% | 1011.2 hPa | 0 mm | 3.58 m/s, 14° | - | - |
| 1788312812 | 24.44° C | 55% | 1011.2 hPa | 0 mm | 0 m/s | - | - |
| 1788312512 | 23.89° C | 55% | 1011.2 hPa | 0 mm | 0 m/s | - | - |
| 1788312212 | 24.44° C | 54% | 1011.2 hPa | 0 mm | 0 m/s | - | - |
| 1788311912 | 24.44° C | 56% | 1011.2 hPa | 0 mm | 0 m/s | - | - |
| 1788311612 | 24.44° C | 58% | 1011.2 hPa | 0 mm | 0 m/s | - | - |
* Rain latest hour (hover to see other rain measurements)
** Current wind speed in m/s (hover to see current wind gust speed)